Time,B instrument,Bx,By,Bz,sigma B,Ion instrument,Status,Tp_par,Tp_perp,carrot,r_sun,clat,clong,earth_he_angle,n_p,vp_x,vp_y,vp_z,vth_p_par,vth_p_perp
1980-10-23 00:08:25,-1,nan,nan,nan,nan,1,3,nan,nan,1700,0.76091021,-5.1159143,87.539642,91.270096,nan,497.053,4.44113,-15.8408,nan,nan
1980-10-23 00:19:13,-1,nan,nan,nan,nan,1,3,nan,nan,1700,0.76084191,-5.1167097,87.443298,91.271408,nan,497.059,-18.6932,-17.852,nan,nan
1980-10-23 00:30:01,-1,nan,nan,nan,nan,1,3,nan,nan,1700,0.76077366,-5.1175051,87.343048,91.272736,nan,493.406,-9.52349,-9.39445,nan,nan
1980-10-23 00:40:49,-1,nan,nan,nan,nan,1,3,nan,nan,1700,0.76071161,-5.118228,87.246613,91.273941,nan,469.258,-2.54826,-0.160823,nan,nan
1980-10-23 00:51:37,-1,nan,nan,nan,nan,1,3,nan,nan,1700,0.76064336,-5.1190224,87.150269,91.275269,nan,467.037,1.68596,23.4804,nan,nan
1980-10-23 01:02:25,-1,nan,nan,nan,nan,1,3,nan,nan,1700,0.76057506,-5.1198177,87.050018,91.276581,nan,464.972,1.36778,-16.3371,nan,nan
1980-10-23 01:13:13,-1,nan,nan,nan,nan,1,3,nan,nan,1700,0.76050675,-5.1206131,86.953705,91.277924,nan,462.265,-2.449,47.375,nan,nan
1980-10-23 01:24:01,-1,nan,nan,nan,nan,1,3,nan,nan,1700,0.76043838,-5.1214085,86.857391,91.279251,nan,473.768,23.6478,-6.79,nan,nan
1980-10-23 01:34:49,-1,nan,nan,nan,nan,1,3,nan,nan,1700,0.76037627,-5.1221313,86.760956,91.280472,nan,467.395,-33.8378,36.1035,nan,nan
1980-10-23 01:45:37,-1,nan,nan,nan,nan,1,3,nan,nan,1700,0.76030797,-5.1229267,86.660706,91.281799,nan,439.282,-11.4248,4.23892,nan,nan
1980-10-23 01:56:25,-1,nan,nan,nan,nan,1,3,nan,nan,1700,0.7602396,-5.1237211,86.564392,91.283142,nan,448.93,-23.6631,29.1439,nan,nan
1980-10-23 02:07:13,-1,nan,nan,nan,nan,1,3,nan,nan,1700,0.76017123,-5.1245165,86.468079,91.28447,nan,447.289,-34.5653,21.9806,nan,nan
1980-10-23 02:18:01,-1,nan,nan,nan,nan,1,3,nan,nan,1700,0.76010287,-5.1253119,86.367859,91.285812,nan,518.252,37.339,1.90093,nan,nan
1980-10-23 02:28:49,-1,nan,nan,nan,nan,1,3,nan,nan,1700,0.7600407,-5.1260347,86.271423,91.287033,nan,473.546,-41.4847,14.4695,nan,nan
1980-10-23 02:39:37,-1,nan,nan,nan,nan,1,3,nan,nan,1700,0.75997233,-5.1268301,86.17511,91.288376,nan,467.877,-61.5706,26.0152,nan,nan
1980-10-23 02:50:25,-1,nan,nan,nan,nan,1,3,nan,nan,1700,0.75990397,-5.1276255,86.07489,91.289719,nan,450.654,-48.4866,6.92332,nan,nan
1980-10-23 03:01:13,-1,nan,nan,nan,nan,1,3,nan,nan,1700,0.75983554,-5.1284199,85.978577,91.291061,nan,458.67,-79.7305,-2.72592,nan,nan
1980-10-23 03:12:01,-1,nan,nan,nan,nan,1,3,nan,nan,1700,0.75976712,-5.1292152,85.882263,91.292404,nan,483.113,-56.5015,-4.00579,nan,nan
1980-10-23 03:34:22,1,9.5,1.36667,-8.4,0.845905,1,1,99451.2,262272.0,1700,0.75963014,-5.130806,85.677917,91.295105,13.8074,463.942,-21.6797,24.5139,40.5194,65.8012
1980-10-23 03:37:04,1,11.5333,-1.32222,-6.5,1.00197,1,1,99632.8,259271.0,1700,0.75961149,-5.1310225,85.654846,91.295471,13.1835,458.623,-20.5388,21.2887,40.5564,65.4237
1980-10-23 03:37:33,1,11.3875,-1.325,-6.75,0.461485,1,1,114458.0,265793.0,1700,0.75961149,-5.1310225,85.65094,91.295471,14.6721,455.248,-14.4844,21.3045,43.4691,66.2415
1980-10-23 03:38:54,1,12.0,0.0125,-5.675,0.973637,1,1,106688.0,255448.0,1700,0.75960529,-5.1310949,85.639343,91.295593,13.5897,454.239,-23.4416,20.0242,41.9677,64.9395
1980-10-23 03:40:15,1,12.0125,0.075,-5.7125,0.518712,1,1,109980.0,264148.0,1700,0.75959283,-5.1312399,85.627899,91.295853,14.2228,453.537,-23.4681,19.1318,42.6103,66.0362
1980-10-23 03:41:36,1,11.575,0.5125,-6.3625,0.574728,1,1,107517.0,272665.0,1700,0.75958657,-5.1313114,85.612396,91.295975,14.4015,456.098,-21.9042,16.9237,42.1306,67.0923
1980-10-23 03:45:37,-1,nan,nan,nan,nan,1,3,nan,nan,1700,0.75956172,-5.1316013,85.577728,91.296463,nan,451.347,-32.431,0.0969388,nan,nan
1980-10-23 03:46:58,1,12.1,1.35556,-4.86667,1.55786,1,1,109417.0,245673.0,1700,0.75955546,-5.1316729,85.566132,91.296585,13.7668,454.06,-26.9376,15.3819,42.5012,63.685
1980-10-23 03:48:21,1,13.9111,1.11111,0.677778,1.08184,1,1,114124.0,239825.0,1700,0.75954306,-5.1318178,85.554657,91.296829,13.9688,443.193,-21.5239,-1.9611,43.4057,62.9223
1980-10-23 03:49:42,1,13.2625,2.375,4.3125,1.19072,1,1,131694.0,266639.0,1700,0.7595368,-5.1318903,85.539154,91.296951,14.7298,443.802,-36.4923,-35.8679,46.6274,66.3468
1980-10-23 03:51:03,1,13.4444,1.64444,-0.644444,1.03745,1,1,122683.0,254442.0,1700,0.75952435,-5.1320343,85.527679,91.297195,14.7168,442.763,-29.8381,-0.679622,45.0038,64.8115
1980-10-23 03:52:24,1,13.4111,2.04444,-0.755556,0.51783,1,1,114045.0,244807.0,1700,0.75951815,-5.1321068,85.516083,91.297318,14.2695,442.473,-30.3967,2.31316,43.3906,63.5725
1980-10-23 03:53:45,1,11.85,5.6125,-0.2875,0.788789,1,1,118741.0,243338.0,1700,0.75951189,-5.1321793,85.504486,91.29744,14.132,451.857,-55.4411,-8.11222,44.275,63.3815
1980-10-23 03:55:06,1,12.1625,2.7125,-4.1625,0.80671,1,1,100226.0,276485.0,1700,0.75949949,-5.1323242,85.493011,91.297684,15.2074,448.851,-36.9195,8.08008,40.677,67.5606
1980-10-23 03:56:27,1,10.9889,5.47778,-2.95556,1.12776,1,1,117592.0,247710.0,1700,0.75949323,-5.1323957,85.481415,91.297806,14.0159,452.251,-46.0043,3.42823,44.0602,63.9483
1980-10-23 03:57:48,1,9.58889,3.83333,-6.12222,2.81789,1,1,127030.0,240200.0,1700,0.75948703,-5.1324682,85.465912,91.297928,14.1114,458.247,-26.5119,26.0663,45.7943,62.9715
1980-10-23 03:59:09,1,11.3444,4.86667,-3.08889,2.35304,1,1,132122.0,250401.0,1700,0.75947458,-5.1326132,85.454437,91.298172,13.9402,458.989,-44.7077,8.7852,46.7031,64.2948
1980-10-23 04:00:30,1,5.43333,4.34444,-8.85556,2.07483,1,1,119249.0,302749.0,1700,0.75946838,-5.1326857,85.442841,91.298309,15.8609,478.952,-43.7067,30.9259,44.3695,70.6967
1980-10-23 04:01:51,1,10.7333,4.94444,-4.52222,0.616241,1,1,119778.0,268392.0,1700,0.75946212,-5.1327572,85.431244,91.298431,14.5674,458.831,-50.8576,11.2769,44.4679,66.5644
1980-10-23 04:03:12,1,11.4889,2.74444,-4.94444,1.65238,1,1,113949.0,270269.0,1700,0.75944966,-5.1329021,85.419769,91.298676,13.5643,467.616,-15.5256,8.12416,43.3724,66.7968
1980-10-23 04:04:31,1,12.475,-0.9625,-5.4875,0.850184,1,1,110661.0,246360.0,1700,0.75944346,-5.1329746,85.408173,91.298798,13.1327,452.463,-27.6125,11.1267,42.7421,63.7739
1980-10-23 04:05:52,1,10.6111,3.37778,-5.82222,1.28755,1,1,108942.0,253353.0,1700,0.7594372,-5.1330471,85.39267,91.29892,13.2486,454.831,-43.2135,12.4741,42.4088,64.6726
1980-10-23 04:07:13,1,9.7375,5.125,-5.3875,1.34548,1,1,112188.0,243777.0,1700,0.75942475,-5.1331911,85.381195,91.299164,13.6251,459.821,-62.5313,6.55511,43.036,63.4387
1980-10-23 04:08:34,1,10.8889,4.08889,-4.03333,0.946208,1,1,101694.0,257914.0,1700,0.75941855,-5.1332636,85.369598,91.299286,13.7253,456.463,-51.056,11.2942,40.9737,65.2522
1980-10-23 04:09:57,1,9.4,5.55556,-5.63333,0.585209,1,1,113519.0,248614.0,1700,0.75941229,-5.1333361,85.358002,91.299408,14.8021,459.318,-54.4478,15.7206,43.2905,64.065
1980-10-23 04:11:18,-1,nan,nan,nan,nan,1,4,nan,nan,1700,0.75939983,-5.133481,85.346527,91.299652,nan,nan,nan,nan,nan,nan
1980-10-23 04:12:39,1,9.17778,4.85556,-5.5,3.06191,1,1,130202.0,240455.0,1700,0.75939363,-5.1335535,85.334961,91.299789,13.6218,455.874,-27.9251,19.5224,46.3624,63.0049
1980-10-23 04:14:00,-1,nan,nan,nan,nan,1,4,nan,nan,1700,0.75938118,-5.1336975,85.31958,91.300034,nan,nan,nan,nan,nan,nan
1980-10-23 04:15:21,1,10.2125,3.25,-3.3,3.70825,1,1,139489.0,280338.0,1700,0.75937492,-5.13377,85.307983,91.300156,16.7933,452.53,-44.3674,3.9133,47.9875,68.0298
1980-10-23 04:16:42,1,7.06667,8.65556,-2.35556,2.42497,1,1,133371.0,257476.0,1700,0.75936872,-5.1338425,85.296387,91.300278,15.4675,473.403,-69.6415,4.55396,46.9233,65.1968
1980-10-23 04:18:03,1,10.0,4.84444,-4.46667,1.26237,1,1,141837.0,261850.0,1700,0.75935626,-5.1339874,85.284912,91.300522,15.8864,460.98,-55.2533,9.20755,48.3896,65.7483
1980-10-23 04:19:24,1,9.92222,5.01111,-3.53333,0.694778,1,1,130537.0,279565.0,1700,0.75935,-5.1340599,85.273315,91.300644,15.7592,452.03,-49.3781,5.29271,46.4221,67.9359
1980-10-23 04:20:45,1,8.46667,6.33333,-3.75556,0.903218,1,1,134731.0,250849.0,1700,0.7593438,-5.1341324,85.261719,91.300766,15.1101,458.68,-54.3029,5.68352,47.162,64.3523
1980-10-23 04:22:06,1,7.84444,7.13333,-3.81111,1.38528,1,1,131976.0,259037.0,1700,0.75933135,-5.1342764,85.246338,91.30101,16.3052,460.995,-58.988,6.3304,46.6772,65.3941
1980-10-23 04:23:27,1,7.88889,6.77778,-3.43333,1.61605,1,1,157842.0,248527.0,1700,0.75932509,-5.1343489,85.234741,91.301132,15.7639,465.075,-64.092,6.96757,51.0468,64.0538
1980-10-23 04:24:48,1,7.34444,6.97778,-3.96667,0.884294,1,1,159810.0,246095.0,1700,0.75931889,-5.1344213,85.223145,91.30127,16.0374,470.916,-68.6666,8.90579,51.3641,63.7395
1980-10-23 04:26:09,1,8.44444,7.42222,-1.58889,0.822372,1,1,158346.0,230882.0,1700,0.75930643,-5.1345663,85.21167,91.301514,14.5819,458.677,-60.5324,-1.34411,51.1283,61.738
1980-10-23 04:27:30,1,9.26667,6.02222,-1.61111,1.02222,1,1,138604.0,259684.0,1700,0.75930017,-5.1346378,85.200073,91.301636,15.5616,452.703,-56.0491,-2.87395,47.835,65.4758
1980-10-23 04:28:51,1,9.84444,4.85556,-1.93333,1.18155,1,1,153306.0,257437.0,1700,0.75929397,-5.1347103,85.188477,91.301758,15.8722,453.76,-54.4916,-1.79021,50.3081,65.1919
1980-10-23 04:30:12,-1,nan,nan,nan,nan,1,-3,nan,nan,1700,0.75928152,-5.1348553,85.173096,91.302002,nan,467.014,-64.4008,-1.17628,nan,nan
1980-10-23 04:31:33,1,-1.8,9.34,8.37,1.18933,1,1,206049.0,240087.0,1700,0.75927532,-5.1349277,85.161499,91.302124,17.3939,497.96,-70.7278,-59.1024,58.3234,62.9568
1980-10-23 04:32:54,1,0.988889,10.8889,1.84444,1.76949,1,1,247907.0,229840.0,1700,0.75926906,-5.1350002,85.149902,91.302246,17.3673,492.256,-73.4775,-11.4088,63.9738,61.5986
1980-10-23 04:34:15,1,-0.355556,11.0,5.18889,1.33712,1,1,169740.0,245436.0,1700,0.7592566,-5.1351442,85.138428,91.30249,17.0535,494.539,-77.4368,-36.4009,52.9359,63.6542
1980-10-23 04:35:36,1,0.25,10.51,6.58,1.25579,1,1,192054.0,249194.0,1700,0.7592504,-5.1352167,85.126831,91.302612,17.8132,491.046,-78.5084,-43.4379,56.3079,64.1397
1980-10-23 04:36:57,1,1.02222,10.5111,6.41111,1.53743,1,1,195220.0,221186.0,1700,0.75924414,-5.1352892,85.115265,91.30275,15.842,503.082,-64.1046,-66.5344,56.7702,60.4278
1980-10-23 04:38:18,1,3.2,10.5222,4.91111,1.34513,1,1,190802.0,247710.0,1700,0.75923169,-5.1354342,85.099884,91.302994,17.9332,484.575,-71.0963,-45.2481,56.1241,63.9484
1980-10-23 04:39:39,1,0.444444,10.9889,4.24444,1.53816,1,1,183243.0,236993.0,1700,0.75922549,-5.1355066,85.088287,91.303116,17.2691,490.927,-74.2719,-36.5317,55.0012,62.5498
1980-10-23 04:41:00,1,2.74444,10.6667,2.92222,1.96576,1,1,209238.0,223297.0,1700,0.75921303,-5.1356506,85.076813,91.30336,17.8322,496.473,-76.4287,-21.9037,58.773,60.7154
1980-10-23 04:42:21,1,3.0,10.7667,1.67778,0.9897,1,1,185317.0,240000.0,1700,0.75920677,-5.1357231,85.065216,91.303482,17.7234,478.711,-72.2477,-19.9866,55.3115,62.9454
1980-10-23 04:43:42,-1,nan,nan,nan,nan,1,4,nan,nan,1700,0.75920057,-5.1357956,85.053619,91.303604,nan,nan,nan,nan,nan,nan
1980-10-23 04:45:03,1,6.95556,7.57778,-3.23333,0.917592,1,1,169937.0,247331.0,1700,0.75918812,-5.1359406,85.042145,91.303848,17.7124,464.475,-53.8365,5.04938,52.9666,63.8995
1980-10-23 04:46:24,1,9.22222,4.16667,-5.1,1.91008,1,1,182807.0,231902.0,1700,0.75918186,-5.136013,85.026642,91.30397,17.9984,459.564,-34.0638,15.4155,54.9356,61.8743
1980-10-23 04:47:45,1,7.8,5.44444,-4.84444,1.77089,1,1,194932.0,264279.0,1700,0.75917566,-5.1360855,85.015045,91.304092,20.1311,467.899,-46.9659,14.885,56.7283,66.0525
1980-10-23 04:49:06,1,8.08889,7.26667,-1.25556,2.55845,1,1,226548.0,251321.0,1700,0.7591632,-5.1362295,85.003571,91.304352,20.0955,470.427,-54.2846,8.07832,61.1558,64.4128
1980-10-23 06:01:31,-1,nan,nan,nan,nan,1,3,nan,nan,1700,0.75871438,-5.1414347,84.34845,91.313293,nan,460.113,-65.8233,-18.1269,nan,nan
1980-10-23 06:02:52,1,6.925,7.85,-1.3,0.88706,1,1,269824.0,221540.0,1700,0.75870812,-5.1415071,84.336853,91.313416,18.1188,459.644,-58.8297,-2.17725,66.7418,60.4761
1980-10-23 06:04:13,1,7.04444,7.77778,1.67778,2.13732,1,1,247708.0,234445.0,1700,0.75869566,-5.1416521,84.325378,91.31366,17.6547,448.434,-62.7512,-23.485,63.9481,62.2126
1980-10-23 06:05:34,1,6.2125,8.4,1.5125,1.56834,1,1,266656.0,206025.0,1700,0.7586894,-5.1417246,84.313812,91.313797,17.7889,453.368,-59.1865,-15.3227,66.3489,58.32
1980-10-23 06:06:57,1,2.28889,10.0333,2.07778,2.38011,1,1,277880.0,247510.0,1700,0.75868315,-5.1417971,84.302216,91.313919,19.0103,462.105,-68.6926,-15.764,67.7308,63.9225
1980-10-23 06:08:18,1,3.04444,9.52222,-1.01111,2.07596,1,1,219459.0,283943.0,1700,0.75867069,-5.1419411,84.290741,91.314163,22.9623,472.485,-60.0769,-19.1205,60.1914,68.4658
1980-10-23 06:09:39,1,4.64444,7.32222,-5.58889,1.62298,1,1,208054.0,229617.0,1700,0.75866443,-5.1420135,84.275238,91.314285,18.5318,473.799,-60.7994,2.6433,58.6066,61.5687
1980-10-23 06:11:00,1,2.91111,10.1333,0.488889,2.99403,1,1,235059.0,221209.0,1700,0.75865197,-5.1421585,84.263763,91.314545,17.3643,467.091,-56.8736,6.61428,62.294,60.431
1980-10-23 06:12:21,1,1.51111,10.9111,1.36667,0.963661,1,1,171672.0,229141.0,1700,0.75864571,-5.142231,84.252167,91.314667,17.6657,477.747,-65.8391,-12.082,53.2363,61.5049
1980-10-23 06:13:42,1,0.733333,10.6889,-1.68889,1.98712,1,1,186283.0,214806.0,1700,0.75863951,-5.1423035,84.24057,91.314789,18.4106,480.311,-62.3366,-10.9748,55.4555,59.5499
1980-10-23 06:15:03,1,3.12222,9.74444,-2.57778,2.13003,1,1,190187.0,231067.0,1700,0.758627,-5.1424475,84.229126,91.315048,18.3589,472.998,-59.8053,3.08466,56.0336,61.7628
1980-10-23 06:16:24,1,1.97778,9.24444,-5.04444,2.15819,1,1,191946.0,223094.0,1700,0.7586208,-5.14252,84.217529,91.31517,18.9628,467.435,-52.597,4.10183,56.2922,60.6879
1980-10-23 06:17:45,1,4.46667,9.42222,-1.44444,1.97309,1,1,211429.0,224779.0,1700,0.75861454,-5.1425924,84.202026,91.315292,18.4437,451.861,-47.0165,5.26698,59.08,60.9166
1980-10-23 06:19:06,1,3.12222,8.48889,4.88889,4.96447,1,1,234465.0,212144.0,1700,0.75860208,-5.1427374,84.190552,91.315536,18.8868,457.156,-47.1861,-13.7692,62.2153,59.1798
1980-10-23 06:23:09,1,3.81,10.01,-0.61,2.70457,1,1,182622.0,227258.0,1700,0.7599315,-5.3524671,83.899841,91.059998,18.589,450.694,-46.1938,5.61921,54.9078,61.2516
1980-10-23 06:25:22,1,9.1,2.61111,-5.8,0.845175,1,1,214539.0,228037.0,1700,0.75856459,-5.1431713,84.136627,91.316299,19.6604,459.99,-60.3838,-5.13795,59.5129,61.3564
1980-10-23 06:25:23,1,9.1,2.61111,-5.8,0.845175,1,1,196462.0,210119.0,1700,0.75857085,-5.1430988,84.136475,91.316162,16.7177,476.182,-63.1183,-8.85775,56.9504,58.8967
1980-10-23 06:25:51,1,6.9,6.275,-3.925,2.47715,1,1,189649.0,235695.0,1700,0.75856459,-5.1431713,84.128815,91.316299,19.0292,451.777,-35.7448,14.857,55.9542,62.3783
1980-10-23 06:27:12,1,5.77778,7.91111,-3.61111,1.45271,1,1,189696.0,230298.0,1700,0.75855213,-5.1433153,84.11734,91.316544,18.7266,455.631,-48.6161,15.1982,55.9611,61.66
1980-10-23 06:28:33,1,5.76667,7.85556,-4.71111,1.16767,1,1,156693.0,239322.0,1700,0.75854588,-5.1433878,84.105743,91.316666,18.8341,450.652,-41.8802,13.6497,50.8607,62.8563
1980-10-23 06:29:54,1,0.0111111,11.5667,3.12222,1.68142,1,1,177530.0,217155.0,1700,0.75853968,-5.1434603,84.094147,91.316788,17.471,482.844,-62.6615,-10.5308,54.137,59.8746
1980-10-23 06:31:15,1,-0.666667,11.8222,2.26667,1.18488,1,1,155480.0,216759.0,1700,0.75852716,-5.1436052,84.082672,91.317047,17.3533,479.772,-65.8576,-7.44828,50.6635,59.82
1980-10-23 06:32:36,1,0.433333,11.4222,0.1,1.24345,1,1,190147.0,202592.0,1700,0.75852096,-5.1436777,84.071075,91.317169,17.6269,485.518,-61.4953,-1.00861,56.0276,57.8322
1980-10-23 06:33:57,1,1.23333,10.8444,-1.33333,1.38332,1,1,182828.0,221980.0,1700,0.7585147,-5.1437502,84.055573,91.317291,17.7758,477.604,-63.4842,9.09344,54.9389,60.5362
1980-10-23 06:35:18,1,1.36667,11.5111,1.6,0.366498,1,1,192211.0,215292.0,1700,0.75850224,-5.1438942,84.044128,91.317551,18.1003,477.002,-63.9526,-11.6354,56.3309,59.6172
1980-10-23 06:36:39,1,-0.7,11.4333,1.55556,1.02427,1,1,185946.0,221458.0,1700,0.75849599,-5.1439667,84.032532,91.317673,18.0949,482.447,-63.7622,-14.2883,55.4053,60.465
1980-10-23 06:38:00,1,0.133333,11.3667,2.53333,0.763035,1,1,190512.0,238913.0,1700,0.75848353,-5.1441116,84.021057,91.317917,20.4667,482.184,-63.3481,-16.5508,56.0814,62.8026
1980-10-23 06:39:21,1,-2.4,10.9778,4.35556,0.74965,1,1,165382.0,211098.0,1700,0.75847727,-5.1441841,84.00946,91.318039,17.0194,480.094,-63.9628,-18.2057,52.2518,59.0338
1980-10-23 06:40:42,1,8.03333,5.97778,-2.07778,3.22888,1,1,214686.0,212429.0,1700,0.75847101,-5.1442566,83.997864,91.318176,17.5256,451.594,-52.6835,5.22508,59.5333,59.2196
1980-10-23 06:42:03,1,7.63333,8.23333,-0.222222,1.60123,1,1,177245.0,225354.0,1700,0.75845855,-5.1444006,83.982483,91.31842,18.1644,461.325,-55.3672,0.748699,54.0935,60.9945
1980-10-23 06:43:24,1,31.1333,-1.18889,17.4111,1.53253,1,1,208326.0,205391.0,1700,0.7584523,-5.1444731,83.970886,91.318542,17.8936,453.974,-49.5691,8.26838,58.6449,58.2303
1980-10-23 06:47:27,1,10.7222,0.455556,-2.84444,2.95033,1,1,211078.0,228069.0,1700,0.75842732,-5.144762,83.936249,91.319046,18.0657,457.17,-4.79713,31.1993,59.0309,61.3609
1980-10-23 06:48:48,1,9.0625,6.775,1.7375,0.840573,1,1,261900.0,219348.0,1700,0.75842112,-5.1448345,83.924652,91.319168,18.6231,451.289,-46.9674,-8.4873,65.7545,60.1762
1980-10-23 06:50:09,1,8.34444,7.4,4.11111,0.756535,1,1,200976.0,224091.0,1700,0.75840861,-5.1449795,83.909271,91.319427,18.1931,448.837,-44.3481,-10.3463,57.601,60.8234
1980-10-23 06:51:30,1,6.58889,8.43333,4.28889,0.577136,1,1,206321.0,207222.0,1700,0.75840241,-5.145052,83.897675,91.31955,17.9995,453.308,-45.4728,-9.90915,58.3619,58.4893
1980-10-23 06:52:51,1,6.38889,8.82222,2.2,0.986827,1,1,183288.0,201136.0,1700,0.75839615,-5.1451244,83.886078,91.319672,17.8835,453.452,-46.4642,-7.25317,55.0079,57.6239
1980-10-23 06:54:12,1,7.57778,7.25556,-0.744444,2.66792,1,1,175368.0,187840.0,1700,0.75838369,-5.1452684,83.874603,91.319916,12.705,465.265,-52.7372,10.6112,53.8063,55.6868
1980-10-23 06:55:33,1,8.63333,6.25556,-2.07778,0.852303,1,1,188877.0,191255.0,1700,0.75837743,-5.1453409,83.863037,91.320053,14.6397,454.359,-49.321,16.4869,55.8403,56.1906
1980-10-23 06:56:54,1,9.575,5.45,-0.125,1.92905,1,1,195364.0,217706.0,1700,0.75837117,-5.1454134,83.85144,91.320175,17.9785,441.758,-39.4904,-3.14536,56.7911,59.9506
1980-10-23 06:58:15,1,11.5125,1.2125,2.4,2.29667,1,1,221081.0,197838.0,1700,0.75835872,-5.1455584,83.83606,91.320419,16.8977,431.339,-17.7651,-15.088,60.4135,57.1495
1980-10-23 06:59:36,1,9.5875,4.875,5.3375,2.47998,1,1,207793.0,228766.0,1700,0.75835246,-5.1456308,83.824463,91.320541,14.6381,442.68,-46.9194,-36.4819,58.5698,61.4545
1980-10-23 07:00:57,1,12.2667,1.6,-0.922222,0.759792,1,1,171875.0,221304.0,1700,0.7583462,-5.1457033,83.812866,91.320679,15.3246,433.657,-26.7438,4.34657,53.2678,60.444
1980-10-23 07:02:18,1,11.15,1.35,-3.65,1.21655,1,1,183898.0,219115.0,1700,0.75833374,-5.1458473,83.801392,91.320923,16.6606,436.095,-26.8004,6.09449,55.0993,60.1443
1980-10-23 07:03:39,1,11.85,1.3,-2.9,0.763217,1,1,188499.0,217334.0,1700,0.75832748,-5.1459198,83.789795,91.321045,15.9947,432.206,-21.9073,6.13817,55.7843,59.8993
1980-10-23 07:05:00,1,10.5625,3.4125,-2.125,2.03907,1,1,174243.0,218553.0,1700,0.75831503,-5.1460648,83.778351,91.321304,15.6927,436.463,-35.6608,7.46676,53.6334,60.067
1980-10-23 07:06:19,1,10.5625,4.075,-0.95,0.530772,1,1,167694.0,195968.0,1700,0.75830877,-5.1461372,83.766754,91.321426,14.9562,435.848,-35.8364,-4.49658,52.6159,56.8788
1980-10-23 07:10:22,-1,nan,nan,nan,nan,1,3,nan,nan,1700,0.75828379,-5.1464262,83.72818,91.32193,nan,442.8,-26.4461,-5.19284,nan,nan
1980-10-23 07:11:45,1,10.4667,4.87778,1.66667,1.03471,1,1,186884.0,214093.0,1700,0.75827754,-5.1464987,83.716583,91.322052,18.2766,448.128,-34.624,-5.34468,55.5448,59.451
1980-10-23 07:13:06,1,10.6333,4.9,3.04444,0.727417,1,1,173429.0,210451.0,1700,0.75826508,-5.1466436,83.705139,91.322311,18.8672,443.839,-28.2077,-5.52639,53.508,58.9432
1980-10-23 07:14:27,1,8.31111,6.33333,4.57778,2.09455,1,1,167777.0,193278.0,1700,0.75825882,-5.1467161,83.693542,91.322433,17.2822,454.823,-43.7683,-12.2419,52.6289,56.4871
1980-10-23 07:15:48,1,11.0111,3.44444,-0.677778,0.901028,1,1,152066.0,201569.0,1700,0.75825256,-5.1467886,83.67804,91.322556,16.9986,442.672,-27.693,8.06284,50.1041,57.686
1980-10-23 07:17:09,1,10.9778,3.46667,-1.75556,0.579058,1,1,145669.0,208866.0,1700,0.7582401,-5.1469326,83.666565,91.322815,17.1862,442.716,-28.2087,8.82474,49.0391,58.7208
1980-10-23 07:18:30,1,10.5222,0.222222,-4.96667,1.4874,1,1,146428.0,208303.0,1700,0.75823385,-5.1470051,83.654968,91.322937,17.7359,443.151,-23.5889,8.18617,49.1666,58.6416
1980-10-23 07:19:51,1,10.0375,4.375,6.3875,1.48166,1,1,148427.0,220474.0,1700,0.75822759,-5.1470776,83.643372,91.323059,20.1629,449.381,-15.0716,-17.0781,49.501,60.3305
1980-10-23 07:21:12,1,6.14444,1.34444,12.8667,0.745687,1,1,164555.0,204622.0,1700,0.75821507,-5.1472225,83.631927,91.323318,18.3778,462.588,-19.4867,-38.5141,52.121,58.1212
1980-10-23 07:22:33,1,8.85556,3.57778,9.15556,1.25078,1,1,197061.0,188068.0,1700,0.75820887,-5.147295,83.620331,91.323441,17.5681,455.223,-21.251,-26.602,57.0372,55.7206
1980-10-23 07:23:54,1,9.78889,3.21111,7.97778,0.649216,1,1,178584.0,201810.0,1700,0.75820261,-5.1473675,83.604828,91.323563,19.0708,448.286,-23.2717,-15.734,54.2973,57.7204
1980-10-23 07:25:15,1,9.05556,3.87778,8.54444,0.503322,1,1,177694.0,199677.0,1700,0.7581901,-5.1475115,83.593353,91.323822,18.5072,449.262,-25.106,-22.3769,54.1619,57.4146
1980-10-23 07:26:36,1,9.01111,3.33333,8.98889,1.37266,1,1,181551.0,202969.0,1700,0.7581839,-5.147584,83.581757,91.323944,18.6515,452.935,-24.4113,-23.8062,54.7466,57.8859
1980-10-23 07:27:57,1,9.68889,3.96667,7.16667,1.21238,1,1,177694.0,202466.0,1700,0.75817764,-5.1476564,83.57016,91.324066,19.3698,445.823,-21.3238,-19.148,54.1619,57.8141
1980-10-23 07:29:18,1,9.52222,2.64444,7.98889,1.25462,1,1,180289.0,204276.0,1700,0.75816512,-5.1478014,83.558716,91.324326,18.5364,450.049,-13.957,-29.0133,54.5559,58.072
1980-10-23 07:30:39,1,9.4,4.8625,5.675,0.588828,1,1,191815.0,186229.0,1700,0.75815886,-5.1478739,83.547119,91.324448,18.4725,450.542,-26.7588,-13.7525,56.2729,55.4475
1980-10-23 07:32:00,1,9.68889,5.22222,5.0,0.885967,1,1,194354.0,193336.0,1700,0.75814641,-5.1480179,83.531738,91.324707,19.0644,446.067,-24.0122,-3.72639,56.6442,56.4955
1980-10-23 07:33:21,1,8.48889,-7.02222,-8.81111,0.410059,1,1,101755.0,200420.0,1700,0.75814015,-5.1480904,83.520142,91.324829,14.3882,449.529,-5.16374,20.696,40.986,57.5213
1980-10-23 07:34:42,1,10.0222,-3.53333,-6.85556,0.808138,1,1,145189.0,211881.0,1700,0.75813389,-5.1481628,83.508545,91.324951,16.7341,445.856,-15.3238,12.9854,48.958,59.1431
1980-10-23 07:36:03,1,11.3778,-1.32222,-4.18889,1.45831,1,1,143117.0,226127.0,1700,0.75812143,-5.1483078,83.497101,91.325211,15.9396,444.567,-7.1755,14.1052,48.6075,61.0991
1980-10-23 07:37:24,1,11.1444,2.81111,1.2,1.4941,1,1,168886.0,215584.0,1700,0.75811517,-5.1483803,83.485504,91.325333,17.9266,442.879,-17.0432,6.44401,52.8025,59.6576
1980-10-23 07:38:45,1,10.8778,0.6,-1.55556,4.36218,1,1,223949.0,200142.0,1700,0.75810891,-5.1484518,83.473907,91.325455,21.36,454.217,-35.8809,-9.27897,60.8041,57.4813
1980-10-23 07:40:06,1,8.0375,-8.075,-7.675,0.784916,1,1,134544.0,206356.0,1700,0.75809646,-5.1485968,83.458527,91.325714,15.0762,457.112,2.01942,22.0294,47.1292,58.3669
1980-10-23 07:41:27,1,7.925,-9.1375,-6.8,0.629856,1,1,127466.0,216992.0,1700,0.7580902,-5.1486692,83.44693,91.325836,15.9706,458.252,11.8549,19.2623,45.8727,59.8522
1980-10-23 07:42:48,1,8.9,-7.87778,-6.71111,0.808596,1,1,126386.0,204173.0,1700,0.75808394,-5.1487417,83.435333,91.325958,15.7881,457.381,7.25184,18.9455,45.678,58.0573
1980-10-23 07:44:09,1,8.43333,-8.92222,-6.31111,2.49186,1,1,122892.0,205645.0,1700,0.75807148,-5.1488867,83.423889,91.326218,15.6848,459.993,12.1012,16.3944,45.0422,58.2663
1980-10-23 07:45:30,1,11.1778,-3.63333,-5.51111,1.69196,1,1,127051.0,214667.0,1700,0.75806522,-5.1489592,83.412292,91.32634,16.1532,451.472,-6.5481,15.8689,45.7981,59.5306